START_TIME,STEP,MOV.,M29,t_acc.,H22,t_acc.,H26,t_acc.,H30,t_acc.
1980-11-13 18:00:20.460 ,6,0,0.,24.0,0.,24.0,0.,24.0,0.,24.0
1980-11-13 18:00:44.460 ,7,1,0.,24.0,0.,24.0,0.,24.0,0.,24.0
1980-11-13 18:01:08.460 ,7,0,0.,24.0,0.,24.0,0.,24.0,0.,24.0
1980-11-13 18:01:32.460 ,7,1,0.,24.0,0.,24.0,0.,24.0,0.,24.0
1980-11-13 18:01:56.460 ,7,0,0.,24.0,0.,24.0,0.,24.0,0.,24.0
1980-11-13 18:02:20.460 ,6,1,0.,24.0,0.,24.0,0.,24.0,0.,24.0
1980-11-13 18:02:44.460 ,6,0,0.,24.0,0.,24.0,0.,24.0,0.,24.0
1980-11-13 18:03:08.460 ,5,1,0.,24.0,0.,24.0,0.,24.0,0.,24.0
1980-11-13 18:03:32.460 ,5,0,0.,24.0,0.,24.0,0.,24.0,0.,24.0
1980-11-13 18:03:56.460 ,4,1,0.,24.0,0.,24.0,0.,24.0,0.,24.0
1980-11-13 18:04:20.460 ,4,0,0.,24.0,0.,24.0,0.,24.0,0.,24.0
1980-11-13 18:04:44.460 ,3,1,0.,24.0,0.,24.0,0.,24.0,0.,24.0
1980-11-13 18:05:08.460 ,3,0,0.,24.0,0.,24.0,0.,24.0,0.,24.0
1980-11-13 18:05:32.460 ,2,1,0.,24.0,0.,24.0,0.,24.0,0.,24.0
1980-11-13 18:05:56.460 ,2,0,0.,24.0,0.,24.0,0.,24.0,0.,24.0
1980-11-13 18:06:20.460 ,1,1,0.,24.0,0.,24.0,0.,24.0,0.,24.0
1980-11-13 18:06:44.460 ,1,0,0.,24.0,0.,24.0,0.,24.0,0.,24.0
1980-11-13 18:07:08.460 ,0,1,0.,24.0,0.,24.0,0.,24.0,0.,24.0
1980-11-13 18:07:32.460 ,0,0,0.,24.0,0.,24.0,0.,24.0,0.,24.0
1980-11-13 18:07:56.460 ,0,1,0.,24.0,0.,24.0,0.,24.0,0.,24.0
1980-11-13 18:08:20.460 ,0,0,0.,24.0,0.,24.0,0.,24.0,0.,24.0
1980-11-13 18:08:44.460 ,1,1,0.,24.0,0.,24.0,0.,24.0,0.,24.0
1980-11-13 18:09:08.460 ,1,0,0.,24.0,0.,24.0,0.,24.0,0.,24.0
1980-11-13 18:09:32.460 ,2,1,0.,24.0,0.,24.0,0.,24.0,0.,24.0
1980-11-13 18:09:56.460 ,2,0,0.,24.0,0.,24.0,0.,24.0,0.,24.0
1980-11-13 18:10:20.460 ,3,1,0.,24.0,0.,24.0,0.,24.0,0.,24.0
1980-11-13 18:10:44.460 ,3,0,0.,24.0,0.,24.0,0.,24.0,0.,24.0
1980-11-13 18:11:08.460 ,4,1,0.,24.0,0.,24.0,0.,24.0,0.,24.0
1980-11-13 18:11:32.460 ,4,0,0.,24.0,0.,24.0,0.,24.0,0.,24.0
1980-11-13 18:11:56.460 ,5,1,0.,24.0,0.,24.0,0.,24.0,0.,24.0
1980-11-13 18:12:20.460 ,5,0,0.,24.0,0.,24.0,0.,24.0,0.,24.0
1980-11-13 18:12:44.460 ,6,1,0.,24.0,0.,24.0,0.,24.0,0.,24.0
1980-11-13 18:13:08.460 ,6,0,0.,24.0,0.,24.0,0.,24.0,0.,24.0
1980-11-13 18:13:32.460 ,7,1,0.,24.0,0.,24.0,0.,24.0,0.,24.0
1980-11-13 18:13:56.460 ,7,0,0.,24.0,0.,24.0,0.,24.0,0.,24.0
1980-11-13 18:14:20.460 ,7,1,0.,24.0,0.,24.0,0.,24.0,0.,24.0
1980-11-13 18:14:44.460 ,7,0,0.,24.0,0.,24.0,0.,24.0,0.,24.0
1980-11-13 18:15:08.460 ,6,1,0.,24.0,0.,24.0,0.,24.0,0.,24.0
1980-11-13 18:15:32.460 ,6,0,0.,24.0,0.,24.0,0.,24.0,0.,24.0
1980-11-13 18:15:56.460 ,5,1,0.,24.0,0.,24.0,0.,24.0,0.,24.0
1980-11-13 18:16:20.460 ,5,0,0.,24.0,0.,24.0,0.,24.0,0.,24.0
1980-11-13 18:16:44.460 ,4,1,0.,24.0,0.,24.0,0.,24.0,0.,24.0
1980-11-13 18:17:08.460 ,4,0,0.,24.0,0.,24.0,0.,24.0,0.,24.0
1980-11-13 18:17:32.460 ,3,1,0.,24.0,0.,24.0,0.,24.0,0.,24.0
1980-11-13 18:17:56.460 ,3,0,0.,24.0,0.,24.0,0.,24.0,0.,24.0
1980-11-13 18:18:20.460 ,2,1,0.,24.0,0.,24.0,0.,24.0,0.,24.0
1980-11-13 18:18:44.460 ,2,0,0.,24.0,0.,24.0,0.,24.0,0.,24.0
1980-11-13 18:19:08.460 ,1,1,0.,24.0,0.,24.0,0.,24.0,0.,24.0
1980-11-13 18:19:32.460 ,1,0,0.,24.0,0.,24.0,0.,24.0,0.,24.0
1980-11-13 18:19:56.460 ,0,1,0.,24.0,0.,24.0,0.,24.0,0.,24.0
1980-11-13 18:20:20.460 ,0,0,0.,24.0,0.,24.0,0.,24.0,0.,24.0
1980-11-13 18:20:44.460 ,0,1,0.,24.0,0.,24.0,0.,24.0,0.,24.0
1980-11-13 18:21:08.460 ,0,0,0.,24.0,0.,24.0,0.,24.0,0.,24.0
1980-11-13 18:21:32.460 ,1,1,0.,24.0,0.,24.0,0.,24.0,0.,24.0
1980-11-13 18:21:56.460 ,1,0,0.,24.0,0.,24.0,0.,24.0,0.,24.0
1980-11-13 18:22:20.460 ,2,1,0.,24.0,0.,24.0,0.,24.0,0.,24.0
1980-11-13 18:22:44.460 ,2,0,0.,24.0,0.,24.0,0.,24.0,0.,24.0
1980-11-13 18:23:08.460 ,3,1,0.,24.0,0.,24.0,0.,24.0,0.,24.0
1980-11-13 18:23:32.460 ,3,0,0.,24.0,0.,24.0,0.,24.0,0.,24.0
1980-11-13 18:23:56.460 ,4,1,0.,24.0,0.,24.0,0.,24.0,0.,24.0
1980-11-13 18:24:20.460 ,4,0,0.,24.0,0.,24.0,0.,24.0,0.,24.0
1980-11-13 18:24:44.460 ,5,1,0.,24.0,0.,24.0,0.,24.0,0.,24.0
1980-11-13 18:25:08.460 ,5,0,0.,24.0,0.,24.0,0.,24.0,0.,24.0
1980-11-13 18:25:32.460 ,6,1,0.,24.0,0.,24.0,0.,24.0,0.,24.0
1980-11-13 18:25:56.460 ,6,0,0.,24.0,0.,24.0,0.,24.0,0.,24.0
1980-11-13 18:26:20.460 ,7,1,0.,24.0,0.,24.0,0.,24.0,0.,24.0
1980-11-13 18:26:44.460 ,7,0,0.,24.0,0.,24.0,0.,24.0,0.,24.0
1980-11-13 18:27:08.460 ,7,1,0.,24.0,0.,24.0,0.,24.0,0.,24.0
1980-11-13 18:27:32.460 ,7,0,0.,24.0,0.,24.0,0.,24.0,0.,24.0
1980-11-13 18:27:56.460 ,6,1,0.,24.0,0.,24.0,0.,24.0,0.,24.0
1980-11-13 18:28:20.460 ,6,0,0.,24.0,0.,24.0,0.,24.0,0.,24.0
1980-11-13 18:28:44.460 ,5,1,0.,24.0,0.,24.0,0.,24.0,0.,24.0
1980-11-13 18:29:08.460 ,0,0,0.,24.0,0.,24.0,0.,24.0,0.,24.0
1980-11-13 18:30:40.860 ,0,0,,0,,0,,0,,0
1980-11-13 18:30:44.460 ,0,0,0.,24.0,0.,24.0,0.,24.0,0.,24.0
1980-11-13 18:31:08.460 ,2,1,0.,24.0,0.,24.0,0.,24.0,0.,24.0
1980-11-13 18:31:32.460 ,2,0,0.,24.0,0.,24.0,0.,24.0,0.,24.0
1980-11-13 18:31:56.460 ,1,1,0.,24.0,0.,24.0,0.,24.0,0.,24.0
1980-11-13 18:32:20.460 ,1,0,0.,24.0,0.,24.0,0.,24.0,0.,24.0
1980-11-13 18:32:44.460 ,0,1,0.,24.0,0.,24.0,0.,24.0,0.,24.0
1980-11-13 18:33:08.460 ,0,0,0.,24.0,0.,24.0,0.,24.0,0.,24.0
1980-11-13 18:33:32.460 ,0,1,0.,24.0,0.,24.0,0.,24.0,0.,24.0
1980-11-13 18:33:56.460 ,0,0,0.,24.0,0.,24.0,0.,24.0,0.,24.0
1980-11-13 18:34:20.460 ,1,1,0.,24.0,0.,24.0,0.,24.0,0.,24.0
1980-11-13 18:34:44.460 ,1,0,0.,24.0,0.,24.0,0.,24.0,0.,24.0
1980-11-13 18:35:08.460 ,2,1,0.,24.0,0.,24.0,0.,24.0,0.,24.0
1980-11-13 18:35:32.460 ,2,0,0.,24.0,0.,24.0,0.,24.0,0.,24.0
1980-11-13 18:35:56.460 ,3,1,0.,24.0,0.,24.0,0.,24.0,0.,24.0
1980-11-13 18:36:20.460 ,3,0,0.,24.0,0.,24.0,0.,24.0,0.,24.0
1980-11-13 18:36:44.460 ,4,1,0.,24.0,0.,24.0,0.,24.0,0.,24.0
1980-11-13 18:37:08.460 ,4,0,0.,24.0,0.,24.0,0.,24.0,0.,24.0
1980-11-13 18:37:32.460 ,5,1,0.,24.0,0.,24.0,0.,24.0,0.,24.0
1980-11-13 18:37:56.460 ,5,0,0.,24.0,0.,24.0,0.,24.0,0.,24.0
1980-11-13 18:38:20.460 ,6,1,0.,24.0,0.,24.0,0.,24.0,0.,24.0
1980-11-13 18:38:44.460 ,6,0,0.,24.0,0.,24.0,0.,24.0,0.,24.0
1980-11-13 18:39:08.460 ,7,1,0.,24.0,0.,24.0,0.,24.0,0.,24.0
1980-11-13 18:39:32.460 ,7,0,0.,24.0,0.,24.0,0.,24.0,0.,24.0
1980-11-13 18:39:56.460 ,7,1,0.,24.0,0.,24.0,0.,24.0,0.,24.0
1980-11-13 18:40:20.460 ,7,0,0.,24.0,0.,24.0,0.,24.0,0.,24.0
1980-11-13 18:40:44.460 ,6,1,0.,24.0,0.,24.0,0.,24.0,0.,24.0
1980-11-13 18:41:08.460 ,6,0,0.,24.0,0.,24.0,0.,24.0,0.,24.0
1980-11-13 18:41:32.460 ,5,1,0.,24.0,0.,24.0,0.,24.0,0.,24.0
1980-11-13 18:41:56.460 ,5,0,0.,24.0,0.,24.0,0.,24.0,0.,24.0
1980-11-13 18:42:20.460 ,4,1,0.,24.0,0.,24.0,0.,24.0,0.,24.0
1980-11-13 18:42:44.460 ,4,0,0.,24.0,0.,24.0,0.,24.0,0.,24.0
1980-11-13 18:43:08.460 ,3,1,0.,24.0,0.,24.0,0.,24.0,0.,24.0
1980-11-13 18:43:32.460 ,3,0,0.,24.0,0.,24.0,0.,24.0,0.,24.0
1980-11-13 18:43:56.460 ,2,1,0.,24.0,0.,24.0,0.,24.0,0.,24.0
1980-11-13 18:44:20.460 ,2,0,0.,24.0,0.,24.0,0.,24.0,0.,24.0
1980-11-13 18:44:44.460 ,1,1,0.,24.0,0.,24.0,0.,24.0,0.,24.0
1980-11-13 18:45:08.460 ,1,0,0.,24.0,0.,24.0,0.,24.0,0.,24.0
1980-11-13 18:45:32.460 ,0,1,0.,24.0,0.,24.0,0.,24.0,0.,24.0
1980-11-13 18:45:56.460 ,0,0,0.,24.0,0.,24.0,0.,24.0,0.,24.0
1980-11-13 18:46:20.460 ,0,1,0.,24.0,0.,24.0,0.,24.0,0.,24.0
1980-11-13 18:46:44.460 ,0,0,0.,24.0,0.,24.0,0.,24.0,0.,24.0
1980-11-13 18:47:08.460 ,1,1,0.,24.0,0.,24.0,0.,24.0,0.,24.0
1980-11-13 18:47:32.460 ,1,0,0.,24.0,0.,24.0,0.,24.0,0.,24.0
1980-11-13 18:47:56.460 ,2,1,0.,24.0,0.,24.0,0.,24.0,0.,24.0
1980-11-13 18:48:20.460 ,2,0,0.,24.0,0.,24.0,0.,24.0,0.,24.0
1980-11-13 18:48:44.460 ,3,1,0.,24.0,0.,24.0,0.,24.0,0.,24.0
1980-11-13 18:49:08.460 ,3,0,0.,24.0,0.,24.0,0.,24.0,0.,24.0
1980-11-13 18:49:32.460 ,4,1,0.,24.0,0.,24.0,0.,24.0,0.,24.0
1980-11-13 18:49:56.460 ,4,0,0.,24.0,0.,24.0,0.,24.0,0.,24.0
1980-11-13 18:50:20.460 ,5,1,0.,24.0,0.,24.0,0.,24.0,0.,24.0
1980-11-13 18:50:44.460 ,5,0,0.,24.0,0.,24.0,0.,24.0,0.,24.0
1980-11-13 18:51:08.460 ,6,1,0.,24.0,0.,24.0,0.,24.0,0.,24.0
1980-11-13 18:51:32.460 ,6,0,0.,24.0,0.,24.0,0.,24.0,0.,24.0
1980-11-13 18:51:56.460 ,7,1,0.,24.0,0.,24.0,0.,24.0,0.,24.0
1980-11-13 18:52:20.460 ,7,0,0.,24.0,0.,24.0,0.,24.0,0.,24.0
1980-11-13 18:52:44.460 ,7,1,0.,24.0,0.,24.0,0.,24.0,0.,24.0
1980-11-13 18:53:08.460 ,7,0,0.,24.0,0.,24.0,0.,24.0,0.,24.0
1980-11-13 18:53:32.460 ,6,1,0.,24.0,0.,24.0,0.,24.0,0.,24.0
1980-11-13 18:53:56.460 ,6,0,0.,24.0,0.,24.0,0.,24.0,0.,24.0
1980-11-13 18:54:20.460 ,5,1,0.,24.0,0.,24.0,0.,24.0,0.,24.0
1980-11-13 18:54:44.460 ,5,0,0.,24.0,0.,24.0,0.,24.0,0.,24.0
1980-11-13 18:55:08.460 ,4,1,0.,24.0,0.,24.0,0.,24.0,0.,24.0
1980-11-13 18:55:32.460 ,4,0,0.,24.0,0.,24.0,0.,24.0,0.,24.0
1980-11-13 18:55:56.460 ,3,1,0.,24.0,0.,24.0,0.,24.0,0.,24.0
1980-11-13 18:56:20.460 ,3,0,0.,24.0,0.,24.0,0.,24.0,0.,24.0
1980-11-13 18:56:44.460 ,2,1,0.,24.0,0.,24.0,0.,24.0,0.,24.0
1980-11-13 18:57:08.460 ,2,0,0.,24.0,0.,24.0,0.,24.0,0.,24.0
1980-11-13 18:57:32.460 ,1,1,0.,24.0,0.,24.0,0.,24.0,0.,24.0
1980-11-13 18:57:56.460 ,1,0,0.,24.0,0.,24.0,0.,24.0,0.,24.0
1980-11-13 18:58:20.460 ,0,1,0.,24.0,0.,24.0,0.,24.0,0.,24.0
1980-11-13 18:58:44.460 ,0,0,0.,24.0,0.,24.0,0.,24.0,0.,24.0
1980-11-13 18:59:08.460 ,0,1,0.,24.0,0.,24.0,0.,24.0,0.,24.0
1980-11-13 18:59:32.460 ,0,0,0.,24.0,0.,24.0,0.,24.0,0.,24.0
1980-11-13 18:59:56.460 ,1,1,0.,24.0,0.,24.0,0.,24.0,0.,24.0
1980-11-13 19:00:20.460 ,1,0,0.,24.0,0.,24.0,0.,24.0,0.,24.0
1980-11-13 19:00:44.460 ,2,1,0.,24.0,0.,24.0,0.,24.0,0.,24.0
1980-11-13 19:01:08.460 ,2,0,0.,24.0,0.,24.0,0.,24.0,0.,24.0
1980-11-13 19:01:32.460 ,3,1,0.,24.0,0.,24.0,0.,24.0,0.,24.0
1980-11-13 19:01:56.460 ,3,0,0.,24.0,0.,24.0,0.,24.0,0.,24.0
1980-11-13 19:02:20.460 ,4,1,0.,24.0,0.,24.0,0.,24.0,0.,24.0
1980-11-13 19:02:44.460 ,4,0,0.,24.0,0.,24.0,0.,24.0,0.,24.0
1980-11-13 19:03:08.460 ,5,1,0.,24.0,0.,24.0,0.,24.0,0.,24.0
1980-11-13 19:03:32.460 ,5,0,0.,24.0,0.,24.0,0.,24.0,0.,24.0
1980-11-13 19:03:56.460 ,6,1,0.,24.0,0.,24.0,0.,24.0,0.,24.0
1980-11-13 19:04:20.460 ,6,0,0.,24.0,0.,24.0,0.,24.0,0.,24.0
1980-11-13 19:04:44.460 ,7,1,0.,24.0,0.,24.0,0.,24.0,0.,24.0
1980-11-13 19:05:08.460 ,7,0,0.,24.0,0.,24.0,0.,24.0,0.,24.0
1980-11-13 19:05:32.460 ,7,1,0.,24.0,0.,24.0,0.,24.0,0.,24.0
1980-11-13 19:05:56.460 ,7,0,0.,24.0,0.,24.0,0.,24.0,0.,24.0
1980-11-13 19:06:20.460 ,6,1,0.,24.0,0.,24.0,0.,24.0,0.,24.0
1980-11-13 19:06:44.460 ,6,0,0.,24.0,0.,24.0,0.,24.0,0.,24.0
1980-11-13 19:07:08.460 ,5,1,0.,24.0,0.,24.0,0.,24.0,0.,24.0
1980-11-13 19:07:32.460 ,5,0,0.,24.0,0.,24.0,0.,24.0,0.,24.0
1980-11-13 19:07:56.460 ,4,1,0.,24.0,0.,24.0,0.,24.0,0.,24.0
1980-11-13 19:08:20.460 ,4,0,0.,24.0,0.,24.0,0.,24.0,0.,24.0
1980-11-13 19:08:44.460 ,3,1,0.,24.0,0.,24.0,0.,24.0,0.,24.0
1980-11-13 19:09:08.460 ,3,0,0.,24.0,0.,24.0,0.,24.0,0.,24.0
1980-11-13 19:09:32.460 ,2,1,0.,24.0,0.,24.0,0.,24.0,0.,24.0
1980-11-13 19:09:56.460 ,2,0,0.,24.0,0.,24.0,0.,24.0,0.,24.0
1980-11-13 19:10:20.460 ,1,1,0.,24.0,0.,24.0,0.,24.0,0.,24.0
1980-11-13 19:10:44.460 ,1,0,0.,24.0,0.,24.0,0.,24.0,0.,24.0
1980-11-13 19:11:08.460 ,0,1,0.,24.0,0.,24.0,0.,24.0,0.,24.0
1980-11-13 19:11:32.460 ,0,0,0.,24.0,0.,24.0,0.,24.0,0.,24.0
1980-11-13 19:11:56.460 ,0,1,0.,24.0,0.,24.0,0.,24.0,0.,24.0
1980-11-13 19:12:20.460 ,0,0,0.,24.0,0.,24.0,0.,24.0,0.,24.0
1980-11-13 19:12:44.460 ,1,1,0.,24.0,0.,24.0,0.,24.0,0.,24.0
1980-11-13 19:13:08.460 ,1,0,0.,24.0,0.,24.0,0.,24.0,0.,24.0
1980-11-13 19:13:32.460 ,2,1,0.,24.0,0.,24.0,0.,24.0,0.,24.0
1980-11-13 19:13:56.460 ,2,0,0.,24.0,0.,24.0,0.,24.0,0.,24.0
1980-11-13 19:14:20.460 ,3,1,0.,24.0,0.,24.0,0.,24.0,0.,24.0
1980-11-13 19:14:44.460 ,3,0,0.,24.0,0.,24.0,0.,24.0,0.,24.0
1980-11-13 19:15:08.460 ,4,1,0.,24.0,0.,24.0,0.,24.0,0.,24.0
1980-11-13 19:15:32.460 ,4,0,0.,24.0,0.,24.0,0.,24.0,0.,24.0
1980-11-13 19:15:56.460 ,5,1,0.,24.0,0.,24.0,0.,24.0,0.,24.0
1980-11-13 19:16:20.460 ,5,0,0.,24.0,0.,24.0,0.,24.0,0.,24.0
1980-11-13 19:16:44.460 ,6,1,0.,24.0,0.,24.0,0.,24.0,0.,24.0
1980-11-13 19:17:08.460 ,6,0,0.,24.0,0.,24.0,0.,24.0,0.,24.0
1980-11-13 19:17:32.460 ,7,1,0.,24.0,0.,24.0,0.,24.0,0.,24.0
1980-11-13 19:17:56.460 ,7,0,0.,24.0,0.,24.0,0.,24.0,0.,24.0
1980-11-13 19:18:20.460 ,7,1,0.,24.0,0.,24.0,0.,24.0,0.,24.0
1980-11-13 19:18:44.460 ,7,0,0.,24.0,0.,24.0,0.,24.0,0.,24.0
1980-11-13 19:19:08.460 ,6,1,0.,24.0,0.,24.0,0.,24.0,0.,24.0
1980-11-13 19:19:32.460 ,6,0,0.,24.0,0.,24.0,0.,24.0,0.,24.0
1980-11-13 19:19:56.460 ,5,1,0.,24.0,0.,24.0,0.,24.0,0.,24.0
1980-11-13 19:20:20.460 ,5,0,0.,24.0,0.,24.0,0.,24.0,0.,24.0
1980-11-13 19:20:44.460 ,4,1,0.,24.0,0.,24.0,0.,24.0,0.,24.0
1980-11-13 19:21:08.460 ,4,0,0.,24.0,0.,24.0,0.,24.0,0.,24.0
1980-11-13 19:21:32.460 ,3,1,0.,24.0,0.,24.0,0.,24.0,0.,24.0
1980-11-13 19:21:56.460 ,3,0,0.,24.0,0.,24.0,0.,24.0,0.,24.0
1980-11-13 19:22:20.460 ,2,1,0.,24.0,0.,24.0,0.,24.0,0.,24.0
1980-11-13 19:22:44.460 ,2,0,0.,24.0,0.,24.0,0.,24.0,0.,24.0
1980-11-13 19:23:08.460 ,1,1,0.,24.0,0.,24.0,0.,24.0,0.,24.0
1980-11-13 19:23:32.460 ,1,0,0.,24.0,0.,24.0,0.,24.0,0.,24.0
1980-11-13 19:23:56.460 ,0,1,0.,24.0,0.,24.0,0.,24.0,0.,24.0
1980-11-13 19:24:20.460 ,0,0,0.,24.0,0.,24.0,0.,24.0,0.,24.0
1980-11-13 19:24:44.460 ,0,1,0.,24.0,0.,24.0,0.,24.0,0.,24.0
1980-11-13 19:25:08.460 ,0,0,0.,24.0,0.,24.0,0.,24.0,0.,24.0
1980-11-13 19:25:32.460 ,1,1,0.,24.0,0.,24.0,0.,24.0,0.,24.0
1980-11-13 19:25:56.460 ,1,0,0.,24.0,0.,24.0,0.,24.0,0.,24.0
1980-11-13 19:26:20.460 ,2,1,0.,24.0,0.,24.0,0.,24.0,0.,24.0
1980-11-13 19:26:44.460 ,2,0,0.,24.0,0.,24.0,0.,24.0,0.,24.0
1980-11-13 19:27:08.460 ,3,1,0.,24.0,0.,24.0,0.,24.0,0.,24.0
1980-11-13 19:27:32.460 ,3,0,0.,24.0,0.,24.0,0.,24.0,0.,24.0
1980-11-13 19:27:56.460 ,4,1,0.,24.0,0.,24.0,0.,24.0,0.,24.0
1980-11-13 19:28:20.460 ,4,0,0.,24.0,0.,24.0,0.,24.0,0.,24.0
1980-11-13 19:28:44.460 ,5,1,0.,24.0,0.,24.0,0.,24.0,0.,24.0
1980-11-13 19:29:08.460 ,5,0,0.,24.0,0.,24.0,0.,24.0,0.,24.0
1980-11-13 19:29:32.460 ,6,1,0.,24.0,0.,24.0,0.,24.0,0.,24.0
1980-11-13 19:29:56.460 ,0,0,0.,24.0,0.,24.0,0.,24.0,0.,24.0
1980-11-13 19:30:32.460 ,0,0,,0,,0,,0,,0
1980-11-13 19:30:44.460 ,0,0,0.,24.0,0.,24.0,0.,24.0,0.,24.0
1980-11-13 19:31:07.860 ,0,0,,0,,0,,0,,0
1980-11-13 19:31:07.860 ,0,0,,0,,0,,0,,0
1980-11-13 19:31:08.460 ,7,1,0.,24.0,0.,24.0,0.,24.0,0.,24.0
1980-11-13 19:31:32.460 ,7,0,0.,24.0,0.,24.0,0.,24.0,0.,24.0
1980-11-13 19:31:56.460 ,6,1,0.,24.0,0.,24.0,0.,24.0,0.,24.0
1980-11-13 19:32:20.460 ,6,0,0.,24.0,0.,24.0,0.,24.0,0.,24.0
1980-11-13 19:32:44.460 ,5,1,0.,24.0,0.,24.0,0.,24.0,0.,24.0
1980-11-13 19:33:08.460 ,5,0,0.,24.0,0.,24.0,0.,24.0,0.,24.0
1980-11-13 19:33:32.460 ,4,1,0.,24.0,0.,24.0,0.,24.0,0.,24.0
1980-11-13 19:33:56.460 ,4,0,0.,24.0,0.,24.0,0.,24.0,0.,24.0
1980-11-13 19:34:20.460 ,3,1,0.,24.0,0.,24.0,0.,24.0,0.,24.0
1980-11-13 19:34:44.460 ,3,0,0.,24.0,0.,24.0,0.,24.0,0.,24.0
1980-11-13 19:35:08.460 ,2,1,0.,24.0,0.,24.0,0.,24.0,0.,24.0
1980-11-13 19:35:32.460 ,2,0,0.,24.0,0.,24.0,0.,24.0,0.,24.0
1980-11-13 19:35:56.460 ,1,1,0.,24.0,0.,24.0,0.,24.0,0.,24.0
1980-11-13 19:36:20.460 ,1,0,0.,24.0,0.,24.0,0.,24.0,0.,24.0
1980-11-13 19:36:44.460 ,0,1,0.,24.0,0.,24.0,0.,24.0,0.,24.0
1980-11-13 19:37:08.460 ,0,0,0.,24.0,0.,24.0,0.,24.0,0.,24.0
1980-11-13 19:37:32.460 ,0,1,0.,24.0,0.,24.0,0.,24.0,0.,24.0
1980-11-13 19:37:56.460 ,0,0,0.,24.0,0.,24.0,0.,24.0,0.,24.0
1980-11-13 19:38:20.460 ,1,1,0.,24.0,0.,24.0,0.,24.0,0.,24.0
1980-11-13 19:38:44.460 ,1,0,0.,24.0,0.,24.0,0.,24.0,0.,24.0
1980-11-13 19:39:08.460 ,2,1,0.,24.0,0.,24.0,0.,24.0,0.,24.0
1980-11-13 19:39:32.460 ,2,0,0.,24.0,0.,24.0,0.,24.0,0.,24.0
1980-11-13 19:39:56.460 ,3,1,0.,24.0,0.,24.0,0.,24.0,0.,24.0
1980-11-13 19:40:20.460 ,3,0,0.,24.0,0.,24.0,0.,24.0,0.,24.0
1980-11-13 19:40:44.460 ,4,1,0.,24.0,0.,24.0,0.,24.0,0.,24.0
1980-11-13 19:41:08.460 ,4,0,0.,24.0,0.,24.0,0.,24.0,0.,24.0
1980-11-13 19:41:32.460 ,5,1,0.,24.0,0.,24.0,0.,24.0,0.,24.0
1980-11-13 19:41:56.460 ,5,0,0.,24.0,0.,24.0,0.,24.0,0.,24.0
1980-11-13 19:42:20.460 ,6,1,0.,24.0,0.,24.0,0.,24.0,0.,24.0
1980-11-13 19:42:44.460 ,6,0,0.,24.0,0.,24.0,0.,24.0,0.,24.0
1980-11-13 19:43:08.460 ,7,1,0.,24.0,0.,24.0,0.,24.0,0.,24.0
1980-11-13 19:43:32.460 ,7,0,0.,24.0,0.,24.0,0.,24.0,0.,24.0
1980-11-13 19:43:56.460 ,7,1,0.,24.0,0.,24.0,0.,24.0,0.,24.0
1980-11-13 19:44:20.460 ,7,0,0.,24.0,0.,24.0,0.,24.0,0.,24.0
1980-11-13 19:44:44.460 ,6,1,0.,24.0,0.,24.0,0.,24.0,0.,24.0
1980-11-13 19:45:08.460 ,6,0,0.,24.0,0.,24.0,0.,24.0,0.,24.0
1980-11-13 19:45:32.460 ,5,1,0.,24.0,0.,24.0,0.,24.0,0.,24.0
1980-11-13 19:45:56.460 ,5,0,0.,24.0,0.,24.0,0.,24.0,0.,24.0
1980-11-13 19:46:20.460 ,4,1,0.,24.0,0.,24.0,0.,24.0,0.,24.0
1980-11-13 19:46:44.460 ,4,0,0.,24.0,0.,24.0,0.,24.0,0.,24.0
1980-11-13 19:47:08.460 ,3,1,0.,24.0,0.,24.0,0.,24.0,0.,24.0
1980-11-13 19:47:32.460 ,3,0,0.,24.0,0.,24.0,0.,24.0,0.,24.0
1980-11-13 19:47:56.460 ,2,1,0.,24.0,0.,24.0,0.,24.0,0.,24.0
1980-11-13 19:48:20.460 ,2,0,0.,24.0,0.,24.0,0.,24.0,0.,24.0
1980-11-13 19:48:44.460 ,1,1,0.,24.0,0.,24.0,0.,24.0,0.,24.0
1980-11-13 19:49:08.460 ,1,0,0.,24.0,0.,24.0,0.,24.0,0.,24.0
1980-11-13 19:49:32.460 ,0,1,0.,24.0,0.,24.0,0.,24.0,0.,24.0
1980-11-13 19:49:56.460 ,0,0,0.,24.0,0.,24.0,0.,24.0,0.,24.0
1980-11-13 19:50:20.460 ,0,1,0.,24.0,0.,24.0,0.,24.0,0.,24.0
1980-11-13 19:50:44.460 ,0,0,0.,24.0,0.,24.0,0.,24.0,0.,24.0
1980-11-13 19:51:08.460 ,1,1,0.,24.0,0.,24.0,0.,24.0,0.,24.0
1980-11-13 19:51:32.460 ,1,0,0.,24.0,0.,24.0,0.,24.0,0.,24.0
1980-11-13 19:51:56.460 ,2,1,0.,24.0,0.,24.0,0.,24.0,0.,24.0
1980-11-13 19:52:20.460 ,2,0,0.,24.0,0.,24.0,0.,24.0,0.,24.0
1980-11-13 19:52:44.460 ,3,1,0.,24.0,0.,24.0,0.,24.0,0.,24.0
1980-11-13 19:53:08.460 ,3,0,0.,24.0,0.,24.0,0.,24.0,0.,24.0
1980-11-13 19:53:32.460 ,4,1,0.,24.0,0.,24.0,0.,24.0,0.,24.0
1980-11-13 19:53:56.460 ,4,0,0.,24.0,0.,24.0,0.,24.0,0.,24.0
1980-11-13 19:54:20.460 ,5,1,0.,24.0,0.,24.0,0.,24.0,0.,24.0
1980-11-13 19:54:44.460 ,5,0,0.,24.0,0.,24.0,0.,24.0,0.,24.0
1980-11-13 19:55:08.460 ,6,1,0.,24.0,0.,24.0,0.,24.0,0.,24.0
1980-11-13 19:55:32.460 ,6,0,0.,24.0,0.,24.0,0.,24.0,0.,24.0
1980-11-13 19:55:56.460 ,7,1,0.,24.0,0.,24.0,0.,24.0,0.,24.0
1980-11-13 19:56:20.460 ,7,0,0.,24.0,0.,24.0,0.,24.0,0.,24.0
1980-11-13 19:56:44.460 ,7,1,0.,24.0,0.,24.0,0.,24.0,0.,24.0
1980-11-13 19:57:08.460 ,7,0,0.,24.0,0.,24.0,0.,24.0,0.,24.0
1980-11-13 19:57:32.460 ,6,1,0.,24.0,0.,24.0,0.,24.0,0.,24.0
1980-11-13 19:57:56.460 ,6,0,0.,24.0,0.,24.0,0.,24.0,0.,24.0
1980-11-13 19:58:20.460 ,5,1,0.,24.0,0.,24.0,0.,24.0,0.,24.0
1980-11-13 19:58:44.460 ,5,0,0.,24.0,0.,24.0,0.,24.0,0.,24.0
1980-11-13 19:59:08.460 ,4,1,0.,24.0,0.,24.0,0.,24.0,0.,24.0
1980-11-13 19:59:32.460 ,4,0,0.,24.0,0.,24.0,0.,24.0,0.,24.0
1980-11-13 19:59:56.460 ,3,1,0.,24.0,0.,24.0,0.,24.0,0.,24.0
1980-11-13 20:00:20.460 ,3,0,0.,24.0,0.,24.0,0.,24.0,0.,24.0
1980-11-13 20:00:44.460 ,2,1,0.,24.0,0.,24.0,0.,24.0,0.,24.0
1980-11-13 20:01:08.460 ,2,0,0.,24.0,0.,24.0,0.,24.0,0.,24.0
1980-11-13 20:01:32.460 ,1,1,0.,24.0,0.,24.0,0.,24.0,0.,24.0
1980-11-13 20:01:56.460 ,1,0,0.,24.0,0.,24.0,0.,24.0,0.,24.0
1980-11-13 20:02:20.460 ,0,1,0.,24.0,0.,24.0,0.,24.0,0.,24.0
1980-11-13 20:02:44.460 ,0,0,0.,24.0,0.,24.0,0.,24.0,0.,24.0
1980-11-13 20:03:08.460 ,0,1,0.,24.0,0.,24.0,0.,24.0,0.,24.0
1980-11-13 20:03:32.460 ,0,0,0.,24.0,0.,24.0,0.,24.0,0.,24.0
1980-11-13 20:03:56.460 ,1,1,0.,24.0,0.,24.0,0.,24.0,0.,24.0
1980-11-13 20:04:20.460 ,1,0,0.,24.0,0.,24.0,0.,24.0,0.,24.0
1980-11-13 20:04:44.460 ,2,1,0.,24.0,0.,24.0,0.,24.0,0.,24.0
1980-11-13 20:05:08.460 ,2,0,0.,24.0,0.,24.0,0.,24.0,0.,24.0
1980-11-13 20:05:32.460 ,3,1,0.,24.0,0.,24.0,0.,24.0,0.,24.0
1980-11-13 20:05:56.460 ,3,0,0.,24.0,0.,24.0,0.,24.0,0.,24.0
1980-11-13 20:06:20.460 ,4,1,0.,24.0,0.,24.0,0.,24.0,0.,24.0
1980-11-13 20:06:44.460 ,4,0,0.,24.0,0.,24.0,0.,24.0,0.,24.0
1980-11-13 20:07:08.460 ,5,1,0.,24.0,0.,24.0,0.,24.0,0.,24.0
1980-11-13 20:07:32.460 ,5,0,0.,24.0,0.,24.0,0.,24.0,0.,24.0
1980-11-13 20:07:56.460 ,6,1,0.,24.0,0.,24.0,0.,24.0,0.,24.0
1980-11-13 20:08:20.460 ,6,0,0.,24.0,0.,24.0,0.,24.0,0.,24.0
1980-11-13 20:08:44.460 ,7,1,0.,24.0,0.,24.0,0.,24.0,0.,24.0
1980-11-13 20:09:08.460 ,7,0,0.,24.0,0.,24.0,0.,24.0,0.,24.0
1980-11-13 20:09:32.460 ,7,1,0.,24.0,0.,24.0,0.,24.0,0.,24.0
1980-11-13 20:09:56.460 ,7,0,0.,24.0,0.,24.0,0.,24.0,0.,24.0
1980-11-13 20:10:20.460 ,6,1,0.,24.0,0.,24.0,0.,24.0,0.,24.0
1980-11-13 20:10:44.460 ,6,0,0.,24.0,0.,24.0,0.,24.0,0.,24.0
1980-11-13 20:11:08.460 ,5,1,0.,24.0,0.,24.0,0.,24.0,0.,24.0
1980-11-13 20:11:32.460 ,5,0,0.,24.0,0.,24.0,0.,24.0,0.,24.0
1980-11-13 20:11:56.460 ,4,1,0.,24.0,0.,24.0,0.,24.0,0.,24.0
1980-11-13 20:12:20.460 ,4,0,0.,24.0,0.,24.0,0.,24.0,0.,24.0
1980-11-13 20:12:44.460 ,3,1,0.,24.0,0.,24.0,0.,24.0,0.,24.0
1980-11-13 20:13:08.460 ,3,0,0.,24.0,0.,24.0,0.,24.0,0.,24.0
1980-11-13 20:13:32.460 ,2,1,0.,24.0,0.,24.0,0.,24.0,0.,24.0
1980-11-13 20:13:56.460 ,2,0,0.,24.0,0.,24.0,0.,24.0,0.,24.0
1980-11-13 20:14:20.460 ,1,1,0.,24.0,0.,24.0,0.,24.0,0.,24.0
1980-11-13 20:14:44.460 ,1,0,0.,24.0,0.,24.0,0.,24.0,0.,24.0
1980-11-13 20:15:08.460 ,0,1,0.,24.0,0.,24.0,0.,24.0,0.,24.0
1980-11-13 20:15:32.460 ,0,0,0.,24.0,0.,24.0,0.,24.0,0.,24.0
1980-11-13 20:15:56.460 ,0,1,0.,24.0,0.,24.0,0.,24.0,0.,24.0
1980-11-13 20:16:20.460 ,0,0,0.,24.0,0.,24.0,0.,24.0,0.,24.0
1980-11-13 20:16:44.460 ,1,1,0.,24.0,0.,24.0,0.,24.0,0.,24.0
1980-11-13 20:17:08.460 ,1,0,0.,24.0,0.,24.0,0.,24.0,0.,24.0
1980-11-13 20:17:32.460 ,2,1,0.,24.0,0.,24.0,0.,24.0,0.,24.0
1980-11-13 20:17:56.460 ,2,0,0.,24.0,0.,24.0,0.,24.0,0.,24.0
1980-11-13 20:18:20.460 ,3,1,0.,24.0,0.,24.0,0.,24.0,0.,24.0
1980-11-13 20:18:44.460 ,3,0,0.,24.0,0.,24.0,0.,24.0,0.,24.0
1980-11-13 20:19:08.460 ,4,1,0.,24.0,0.,24.0,0.,24.0,0.,24.0
1980-11-13 20:19:32.460 ,0,0,0.,24.0,0.,24.0,0.,24.0,0.,24.0
1980-11-13 20:19:56.460 ,5,1,0.,24.0,0.,24.0,0.,24.0,0.,24.0
1980-11-13 20:20:20.460 ,5,0,0.,24.0,0.,24.0,0.,24.0,0.,24.0
1980-11-13 20:20:44.460 ,6,1,0.,24.0,0.,24.0,0.,24.0,0.,24.0
1980-11-13 20:21:08.460 ,6,0,0.,24.0,0.,24.0,0.,24.0,0.,24.0
1980-11-13 20:21:32.460 ,7,1,0.,24.0,0.,24.0,0.,24.0,0.,24.0
1980-11-13 20:21:56.460 ,7,0,0.,24.0,0.,24.0,0.,24.0,0.,24.0
1980-11-13 20:22:20.460 ,7,1,0.,24.0,0.,24.0,0.,24.0,0.,24.0
1980-11-13 20:22:44.460 ,7,0,0.,24.0,0.,24.0,0.,24.0,0.,24.0
1980-11-13 20:23:08.460 ,6,1,0.,24.0,0.,24.0,0.,24.0,0.,24.0
1980-11-13 20:23:32.460 ,6,0,0.,24.0,0.,24.0,0.,24.0,0.,24.0
1980-11-13 20:23:56.460 ,5,1,0.,24.0,0.,24.0,0.,24.0,0.,24.0
1980-11-13 20:24:20.460 ,5,0,0.,24.0,0.,24.0,0.,24.0,0.,24.0
1980-11-13 20:24:44.460 ,4,1,0.,24.0,0.,24.0,0.,24.0,0.,24.0
1980-11-13 20:25:08.460 ,4,0,0.,24.0,0.,24.0,0.,24.0,0.,24.0
1980-11-13 20:25:32.460 ,3,1,0.,24.0,0.,24.0,0.,24.0,0.,24.0
1980-11-13 20:25:56.460 ,3,0,0.,24.0,0.,24.0,0.,24.0,0.,24.0
1980-11-13 20:26:20.460 ,2,1,0.,24.0,0.,24.0,0.,24.0,0.,24.0
1980-11-13 20:26:44.460 ,2,0,0.,24.0,0.,24.0,0.,24.0,0.,24.0
1980-11-13 20:27:08.460 ,1,1,0.,24.0,0.,24.0,0.,24.0,0.,24.0
1980-11-13 20:27:32.460 ,1,0,0.,24.0,0.,24.0,0.,24.0,0.,24.0
1980-11-13 20:27:56.460 ,0,1,0.,24.0,0.,24.0,0.,24.0,0.,24.0
1980-11-13 20:28:20.460 ,0,0,0.,24.0,0.,24.0,0.,24.0,0.,24.0
1980-11-13 20:28:44.460 ,0,1,0.,24.0,0.,24.0,0.,24.0,0.,24.0
1980-11-13 20:29:08.460 ,0,0,0.,24.0,0.,24.0,0.,24.0,0.,24.0
1980-11-13 20:29:32.460 ,1,1,0.,24.0,0.,24.0,0.,24.0,0.,24.0
1980-11-13 20:29:56.460 ,1,0,0.,24.0,0.,24.0,0.,24.0,0.,24.0
1980-11-13 20:30:20.460 ,2,1,0.,24.0,0.,24.0,0.,24.0,0.,24.0
1980-11-13 20:30:44.460 ,2,0,0.,24.0,0.,24.0,0.,24.0,0.,24.0
1980-11-13 20:31:08.460 ,3,1,0.,24.0,0.,24.0,0.,24.0,0.,24.0
1980-11-13 20:31:32.460 ,3,0,0.,24.0,0.,24.0,0.,24.0,0.,24.0
1980-11-13 20:31:56.460 ,4,1,0.,24.0,0.,24.0,0.,24.0,0.,24.0
1980-11-13 20:32:20.460 ,4,0,0.,24.0,0.,24.0,0.,24.0,0.,24.0
1980-11-13 20:32:44.460 ,5,1,0.,24.0,0.,24.0,0.,24.0,0.,24.0
1980-11-13 20:33:08.460 ,5,0,0.,24.0,0.,24.0,0.,24.0,0.,24.0
1980-11-13 20:33:32.460 ,6,1,0.,24.0,0.,24.0,0.,24.0,0.,24.0
1980-11-13 20:33:56.460 ,6,0,0.,24.0,0.,24.0,0.,24.0,0.,24.0
1980-11-13 20:34:20.460 ,7,1,0.,24.0,0.,24.0,0.,24.0,0.,24.0
1980-11-13 20:34:44.460 ,7,0,0.,24.0,0.,24.0,0.,24.0,0.,24.0